Voltar ao catálogo

STARLINK-3754

AtivoComunicaçõesVLEO
NORAD 52350·PAYLOAD·🇺🇸 United States

Lançado Apr 29, 2022 de Cape Canaveral Space Force Station

Loading…

Próximas Passagens (próximas 24 horas)

TLE

AtualizadoSource: CelesTrak SupGP

Época: Sep 15, 2026, 02:29 UTC

1 52350C 22045V   26258.10395833 -.00035288  00000+0 -10428-2 0  2585
2 52350  53.1590  54.6205 0001377  91.6192 176.8806 15.34403527    19

Acompanhe STARLINK-3754 em tempo real com AllMySat

Download on the App Store